• In Deutschland
  • Länderverzeichnis
  • Für 7 Tage
  • Wassertemperatur
  • Satellitenkarten
  • Wetterkarte
  • Widgets
  • user-avatar
    Anmelden

    Stündliche Wetter Zittau

    Heute, 21 Oktober, Samstag

    Zeit Temperatur Niederschläge Wind Luftdruck Luftfeuchtigkeit
    00:00 +12°C° 0 mm 2 m/S 738 mmHg 81%
    01:00 +12°C° 0 mm 2 m/S 738 mmHg 83%
    02:00 +10°C° 0 mm 2 m/S 738 mmHg 86%
    03:00 +10°C° 0 mm 2 m/S 738 mmHg 88%
    04:00 +9°C° 0 mm 2 m/S 738 mmHg 91%
    05:00 +9°C° 0 mm 2 m/S 738 mmHg 91%
    06:00 +8°C° 0 mm 2 m/S 738 mmHg 91%
    07:00 +8°C° 0 mm 2 m/S 739 mmHg 91%
    08:00 +10°C° 0 mm 2 m/S 739 mmHg 84%
    09:00 +12°C° 0 mm 2 m/S 739 mmHg 77%
    10:00 +13°C° 0 mm 3 m/S 739 mmHg 70%
    11:00 +13°C° 0 mm 3 m/S 739 mmHg 66%
    12:00 +15°C° 0 mm 2 m/S 738 mmHg 63%
    13:00 +16°C° 0 mm 2 m/S 738 mmHg 60%
    14:00 +16°C° 0 mm 2 m/S 738 mmHg 62%
    15:00 +15°C° 0 mm 1 m/S 738 mmHg 64%
    16:00 +15°C° 0 mm 1 m/S 738 mmHg 66%
    17:00 +14°C° 0 mm 1 m/S 738 mmHg 70%
    18:00 +13°C° 0 mm 1 m/S 738 mmHg 74%
    19:00 +12°C° 0 mm 2 m/S 738 mmHg 78%
    20:00 +12°C° 0,1 mm 2 m/S 738 mmHg 78%
    21:00 +12°C° 0,1 mm 2 m/S 738 mmHg 79%
    22:00 +13°C° 0,1 mm 2 m/S 737 mmHg 79%
    23:00 +13°C° 0,4 mm 2 m/S 737 mmHg 82%

    Morgen, 22 Oktober, Sonntag

    Zeit Temperatur Niederschläge Wind Luftdruck Luftfeuchtigkeit
    00:00 +13°C° 0,4 mm 2 m/S 737 mmHg 84%
    01:00 +13°C° 0,4 mm 2 m/S 737 mmHg 87%
    02:00 +11°C° 1,2 mm 3 m/S 737 mmHg 88%
    03:00 +11°C° 1,2 mm 3 m/S 737 mmHg 90%
    04:00 +11°C° 1,2 mm 4 m/S 737 mmHg 91%
    05:00 +11°C° 0,7 mm 3 m/S 738 mmHg 90%
    06:00 +10°C° 0,7 mm 3 m/S 738 mmHg 90%
    07:00 +10°C° 0,7 mm 3 m/S 738 mmHg 90%
    08:00 +10°C° 0,3 mm 3 m/S 738 mmHg 87%
    09:00 +11°C° 0,3 mm 3 m/S 738 mmHg 84%
    10:00 +11°C° 0,3 mm 3 m/S 739 mmHg 82%
    11:00 +12°C° 0,1 mm 3 m/S 738 mmHg 76%
    12:00 +12°C° 0,1 mm 4 m/S 738 mmHg 71%
    13:00 +13°C° 0,1 mm 4 m/S 738 mmHg 65%
    14:00 +12°C° 0,1 mm 3 m/S 738 mmHg 68%
    15:00 +12°C° 0,1 mm 3 m/S 738 mmHg 70%
    16:00 +12°C° 0,1 mm 2 m/S 738 mmHg 72%
    17:00 +12°C° 0,1 mm 2 m/S 738 mmHg 74%
    18:00 +10°C° 0,1 mm 2 m/S 738 mmHg 77%
    19:00 +9°C° 0,1 mm 2 m/S 738 mmHg 79%
    20:00 +9°C° 0 mm 2 m/S 738 mmHg 81%
    21:00 +8°C° 0 mm 2 m/S 738 mmHg 82%
    22:00 +8°C° 0 mm 2 m/S 738 mmHg 84%
    23:00 +7°C° 0 mm 2 m/S 738 mmHg 85%

    übermorgen, 23 Oktober, Montag

    Zeit Temperatur Niederschläge Wind Luftdruck Luftfeuchtigkeit
    00:00 +7°C° 0 mm 2 m/S 738 mmHg 86%
    01:00 +7°C° 0 mm 2 m/S 739 mmHg 87%
    02:00 +6°C° 0 mm 2 m/S 738 mmHg 88%
    03:00 +6°C° 0 mm 2 m/S 738 mmHg 90%
    04:00 +6°C° 0 mm 2 m/S 738 mmHg 91%
    05:00 +6°C° 0 mm 2 m/S 738 mmHg 91%
    06:00 +6°C° 0 mm 2 m/S 738 mmHg 91%
    07:00 +6°C° 0 mm 2 m/S 738 mmHg 91%
    08:00 +7°C° 0 mm 2 m/S 739 mmHg 85%
    09:00 +8°C° 0 mm 3 m/S 739 mmHg 80%
    10:00 +9°C° 0 mm 3 m/S 739 mmHg 74%
    11:00 +9°C° 0 mm 3 m/S 739 mmHg 75%
    12:00 +9°C° 0 mm 3 m/S 739 mmHg 77%
    13:00 +9°C° 0 mm 3 m/S 739 mmHg 78%
    14:00 +9°C° 0 mm 3 m/S 739 mmHg 79%
    15:00 +9°C° 0 mm 3 m/S 739 mmHg 81%
    16:00 +9°C° 0 mm 3 m/S 739 mmHg 82%
    17:00 +8°C° 0 mm 2 m/S 740 mmHg 86%
    18:00 +8°C° 0 mm 2 m/S 740 mmHg 89%
    19:00 +8°C° 0 mm 1 m/S 740 mmHg 92%
    20:00 +8°C° 0 mm 1 m/S 740 mmHg 92%
    21:00 +7°C° 0 mm 1 m/S 741 mmHg 93%
    22:00 +7°C° 0 mm 1 m/S 741 mmHg 94%
    23:00 +7°C° 0 mm 1 m/S 741 mmHg 94%

    24 Oktober, Dienstag

    Zeit Temperatur Niederschläge Wind Luftdruck Luftfeuchtigkeit
    00:00 +7°C° 0 mm 1 m/S 742 mmHg 95%
    01:00 +8°C° 0 mm 1 m/S 742 mmHg 95%
    02:00 +7°C° 0 mm 1 m/S 742 mmHg 95%
    03:00 +7°C° 0 mm 1 m/S 742 mmHg 96%
    04:00 +7°C° 0 mm 1 m/S 742 mmHg 96%
    05:00 +7°C° 0 mm 1 m/S 743 mmHg 96%
    06:00 +7°C° 0 mm 1 m/S 743 mmHg 96%
    07:00 +7°C° 0 mm 1 m/S 744 mmHg 96%
    08:00 +9°C° 0 mm 1 m/S 744 mmHg 92%
    09:00 +10°C° 0 mm 1 m/S 744 mmHg 88%
    10:00 +10°C° 0 mm 2 m/S 745 mmHg 83%
    11:00 +10°C° 0 mm 2 m/S 745 mmHg 82%
    12:00 +10°C° 0 mm 2 m/S 745 mmHg 81%
    13:00 +12°C° 0 mm 1 m/S 745 mmHg 79%
    14:00 +12°C° 0,1 mm 1 m/S 745 mmHg 81%
    15:00 +11°C° 0,1 mm 1 m/S 745 mmHg 82%
    16:00 +11°C° 0,1 mm 1 m/S 745 mmHg 83%
    17:00 +11°C° 0 mm 1 m/S 745 mmHg 85%
    18:00 +10°C° 0 mm 1 m/S 745 mmHg 86%
    19:00 +10°C° 0 mm 1 m/S 745 mmHg 87%
    20:00 +9°C° 0 mm 1 m/S 745 mmHg 88%
    21:00 +9°C° 0 mm 1 m/S 746 mmHg 88%
    22:00 +8°C° 0 mm 1 m/S 746 mmHg 89%
    23:00 +8°C° 0 mm 1 m/S 746 mmHg 90%

    25 Oktober, Mittwoch

    Zeit Temperatur Niederschläge Wind Luftdruck Luftfeuchtigkeit
    00:00 +8°C° 0 mm 1 m/S 746 mmHg 90%
    01:00 +8°C° 0 mm 1 m/S 746 mmHg 91%
    02:00 +8°C° 0 mm 1 m/S 746 mmHg 90%
    03:00 +8°C° 0 mm 1 m/S 746 mmHg 90%
    04:00 +8°C° 0 mm 1 m/S 745 mmHg 90%
    05:00 +8°C° 0 mm 1 m/S 745 mmHg 90%
    06:00 +7°C° 0 mm 2 m/S 745 mmHg 90%
    07:00 +7°C° 0 mm 2 m/S 745 mmHg 89%
    08:00 +8°C° 0 mm 2 m/S 746 mmHg 87%
    09:00 +9°C° 0 mm 2 m/S 746 mmHg 84%
    10:00 +10°C° 0 mm 2 m/S 746 mmHg 81%
    11:00 +10°C° 0,2 mm 2 m/S 746 mmHg 83%
    12:00 +10°C° 0,2 mm 2 m/S 745 mmHg 84%
    13:00 +9°C° 0,2 mm 2 m/S 745 mmHg 86%
    14:00 +10°C° 0,1 mm 2 m/S 745 mmHg 87%
    15:00 +10°C° 0,1 mm 2 m/S 745 mmHg 88%
    16:00 +10°C° 0,1 mm 2 m/S 745 mmHg 89%
    17:00 +10°C° 0 mm 2 m/S 745 mmHg 90%
    18:00 +10°C° 0 mm 2 m/S 745 mmHg 91%
    19:00 +11°C° 0 mm 1 m/S 745 mmHg 92%
    20:00 +11°C° 0 mm 1 m/S 745 mmHg 93%
    21:00 +11°C° 0 mm 1 m/S 745 mmHg 94%
    22:00 +11°C° 0 mm 1 m/S 746 mmHg 94%
    23:00 +11°C° 0,1 mm 1 m/S 746 mmHg 95%

    26 Oktober, Donnerstag

    Zeit Temperatur Niederschläge Wind Luftdruck Luftfeuchtigkeit
    00:00 +11°C° 0,1 mm 1 m/S 746 mmHg 95%
    01:00 +11°C° 0,1 mm 1 m/S 746 mmHg 95%
    02:00 +11°C° 0,1 mm 1 m/S 746 mmHg 95%
    03:00 +11°C° 0,1 mm 1 m/S 746 mmHg 95%
    04:00 +11°C° 0,1 mm 1 m/S 745 mmHg 96%
    05:00 +11°C° 0 mm 1 m/S 746 mmHg 96%
    06:00 +11°C° 0 mm 1 m/S 746 mmHg 96%
    07:00 +11°C° 0 mm 1 m/S 746 mmHg 96%
    08:00 +12°C° 0 mm 2 m/S 746 mmHg 91%
    09:00 +14°C° 0 mm 2 m/S 746 mmHg 86%
    10:00 +15°C° 0 mm 2 m/S 746 mmHg 82%
    11:00 +16°C° 0 mm 2 m/S 746 mmHg 78%
    12:00 +16°C° 0 mm 2 m/S 746 mmHg 75%
    13:00 +17°C° 0 mm 2 m/S 746 mmHg 72%
    14:00 +17°C° 0 mm 2 m/S 746 mmHg 75%
    15:00 +16°C° 0 mm 1 m/S 746 mmHg 77%
    16:00 +15°C° 0 mm 1 m/S 746 mmHg 80%
    17:00 +14°C° 0 mm 1 m/S 746 mmHg 84%
    18:00 +13°C° 0 mm 1 m/S 746 mmHg 87%
    19:00 +11°C° 0 mm 0 m/S 746 mmHg 91%
    20:00 +11°C° 0 mm 0 m/S 746 mmHg 92%
    21:00 +11°C° 0 mm 0 m/S 746 mmHg 92%
    22:00 +11°C° 0 mm 0 m/S 747 mmHg 93%
    23:00 +10°C° 0 mm 0 m/S 746 mmHg 93%
    Mehr zeigen